Time,TemperatureF,DewpointF,PressureIn,WindDirection,WindDirectionDegrees,WindSpeedMPH,WindSpeedGustMPH,Humidity,HourlyPrecipIn,Conditions,Clouds,dailyrainin,SoftwareType,DateUTC
2013-05-01 00:03:00,60.0,59.0,30.11,North,5,0.0,3.0,95,0.00,,,0.00,,2013-05-01 04:03:00,
2013-05-01 00:12:00,60.0,59.0,30.11,North,5,0.0,3.0,95,0.00,,,0.00,,2013-05-01 04:12:00,
2013-05-01 00:22:00,60.0,58.0,30.11,North,5,0.0,1.0,94,0.00,,,0.00,,2013-05-01 04:22:00,
2013-05-01 00:32:00,60.0,58.0,30.11,North,5,0.0,1.0,93,0.00,,,0.00,,2013-05-01 04:32:00,
2013-05-01 00:43:00,60.0,58.0,30.11,North,5,0.0,1.0,93,0.00,,,0.00,,2013-05-01 04:43:00,
2013-05-01 00:52:00,61.0,59.0,30.12,North,5,0.0,2.0,92,0.00,,,0.00,,2013-05-01 04:52:00,
2013-05-01 01:02:00,61.0,58.0,30.12,North,5,0.0,2.0,91,0.00,,,0.00,,2013-05-01 05:02:00,
2013-05-01 01:12:00,61.0,58.0,30.12,North,5,0.0,2.0,91,0.00,,,0.00,,2013-05-01 05:12:00,
2013-05-01 01:22:00,61.0,58.0,30.12,North,5,0.0,3.0,89,0.00,,,0.00,,2013-05-01 05:22:00,
2013-05-01 01:32:00,61.0,58.0,30.12,North,5,0.0,2.0,89,0.00,,,0.00,,2013-05-01 05:32:00,
2013-05-01 01:42:00,61.0,58.0,30.12,North,5,0.0,2.0,89,0.00,,,0.00,,2013-05-01 05:42:00,
2013-05-01 01:52:00,60.0,57.0,30.12,North,5,0.0,0.0,89,0.00,,,0.00,,2013-05-01 05:52:00,
2013-05-01 02:02:00,60.0,57.0,30.12,North,5,0.0,0.0,89,0.00,,,0.00,,2013-05-01 06:02:00,
2013-05-01 02:12:00,60.0,57.0,30.12,North,5,0.0,0.0,89,0.00,,,0.00,,2013-05-01 06:12:00,
2013-05-01 02:22:00,59.0,56.0,30.13,North,5,0.0,0.0,90,0.00,,,0.00,,2013-05-01 06:22:00,
2013-05-01 02:32:00,59.0,57.0,30.13,North,5,0.0,0.0,92,0.00,,,0.00,,2013-05-01 06:32:00,
2013-05-01 02:42:00,59.0,57.0,30.13,North,5,0.0,0.0,92,0.00,,,0.00,,2013-05-01 06:42:00,
2013-05-01 02:51:00,58.0,56.0,30.13,North,5,0.0,0.0,93,0.00,,,0.00,,2013-05-01 06:51:00,
2013-05-01 03:01:00,58.0,56.0,30.13,North,5,0.0,0.0,93,0.00,,,0.00,,2013-05-01 07:01:00,
2013-05-01 03:11:00,58.0,56.0,30.13,North,5,0.0,0.0,93,0.00,,,0.00,,2013-05-01 07:11:00,
2013-05-01 03:21:00,58.0,56.0,30.12,North,5,0.0,1.0,93,0.00,,,0.00,,2013-05-01 07:21:00,
2013-05-01 03:32:00,58.0,56.0,30.11,North,5,0.0,1.0,92,0.00,,,0.00,,2013-05-01 07:32:00,
2013-05-01 03:42:00,58.0,56.0,30.11,North,5,0.0,1.0,92,0.00,,,0.00,,2013-05-01 07:42:00,
2013-05-01 03:52:00,58.0,56.0,30.11,North,5,0.0,2.0,92,0.00,,,0.00,,2013-05-01 07:52:00,
2013-05-01 04:02:00,58.0,56.0,30.11,North,5,0.0,1.0,92,0.00,,,0.00,,2013-05-01 08:02:00,
2013-05-01 04:12:00,58.0,56.0,30.11,North,5,0.0,1.0,92,0.00,,,0.00,,2013-05-01 08:12:00,
2013-05-01 04:22:00,58.0,56.0,30.11,North,5,0.0,1.0,92,0.00,,,0.00,,2013-05-01 08:22:00,
2013-05-01 04:32:00,57.0,55.0,30.11,North,5,0.0,1.0,92,0.00,,,0.00,,2013-05-01 08:32:00,
2013-05-01 04:42:00,57.0,55.0,30.11,North,5,0.0,1.0,92,0.00,,,0.00,,2013-05-01 08:42:00,
2013-05-01 04:53:00,57.0,55.0,30.11,North,5,0.0,2.0,92,0.00,,,0.00,,2013-05-01 08:53:00,
2013-05-01 05:01:00,56.0,54.0,30.11,North,5,0.0,1.0,92,0.00,,,0.00,,2013-05-01 09:01:00,
2013-05-01 05:12:00,56.0,54.0,30.11,North,5,0.0,1.0,92,0.00,,,0.00,,2013-05-01 09:12:00,
2013-05-01 05:21:00,56.0,54.0,30.11,North,5,0.0,1.0,92,0.00,,,0.00,,2013-05-01 09:21:00,
2013-05-01 05:33:00,55.0,53.0,30.12,North,5,0.0,0.0,93,0.00,,,0.00,,2013-05-01 09:33:00,
2013-05-01 05:43:00,55.0,53.0,30.12,North,5,0.0,0.0,93,0.00,,,0.00,,2013-05-01 09:43:00,
2013-05-01 05:53:00,55.0,53.0,30.11,North,5,0.0,0.0,94,0.00,,,0.00,,2013-05-01 09:53:00,
2013-05-01 06:03:00,55.0,53.0,30.11,North,5,0.0,0.0,94,0.00,,,0.00,,2013-05-01 10:03:00,
2013-05-01 06:12:00,55.0,53.0,30.11,North,5,0.0,0.0,94,0.00,,,0.00,,2013-05-01 10:12:00,
2013-05-01 06:22:00,54.0,53.0,30.12,North,5,0.0,0.0,95,0.00,,,0.00,,2013-05-01 10:22:00,
2013-05-01 06:33:00,54.0,53.0,30.13,North,5,0.0,0.0,95,0.00,,,0.00,,2013-05-01 10:33:00,
2013-05-01 06:42:00,54.0,53.0,30.13,North,5,0.0,0.0,95,0.00,,,0.00,,2013-05-01 10:42:00,
2013-05-01 06:52:00,54.0,53.0,30.13,North,5,0.0,3.0,95,0.00,,,0.00,,2013-05-01 10:52:00,
2013-05-01 07:03:00,54.0,53.0,30.13,North,5,0.0,3.0,96,0.00,,,0.00,,2013-05-01 11:03:00,
2013-05-01 07:11:00,54.0,53.0,30.13,North,5,0.0,3.0,96,0.00,,,0.00,,2013-05-01 11:11:00,
2013-05-01 07:22:00,54.0,53.0,30.13,North,5,0.0,2.0,96,0.00,,,0.00,,2013-05-01 11:22:00,
2013-05-01 07:32:00,55.0,54.0,30.13,North,5,0.0,1.0,95,0.00,,,0.00,,2013-05-01 11:32:00,
2013-05-01 07:42:00,55.0,54.0,30.13,North,5,0.0,1.0,95,0.00,,,0.00,,2013-05-01 11:42:00,
2013-05-01 07:52:00,55.0,54.0,30.14,North,5,0.0,0.0,95,0.00,,,0.00,,2013-05-01 11:52:00,
2013-05-01 08:02:00,55.0,54.0,30.15,North,5,0.0,2.0,95,0.00,,,0.00,,2013-05-01 12:02:00,
2013-05-01 08:11:00,55.0,54.0,30.15,North,5,0.0,2.0,95,0.00,,,0.00,,2013-05-01 12:11:00,
2013-05-01 08:21:00,55.0,54.0,30.15,North,5,0.0,4.0,95,0.00,,,0.00,,2013-05-01 12:21:00,
2013-05-01 08:32:00,56.0,54.0,30.16,North,5,0.0,3.0,94,0.00,,,0.00,,2013-05-01 12:32:00,
2013-05-01 08:42:00,56.0,54.0,30.16,North,5,0.0,3.0,94,0.00,,,0.00,,2013-05-01 12:42:00,
2013-05-01 08:52:00,57.0,54.0,30.16,North,5,1.0,7.0,90,0.00,,,0.00,,2013-05-01 12:52:00,
2013-05-01 09:01:00,58.0,54.0,30.17,North,5,0.0,6.0,87,0.00,,,0.00,,2013-05-01 13:01:00,
2013-05-01 09:11:00,58.0,54.0,30.17,North,5,0.0,6.0,87,0.00,,,0.00,,2013-05-01 13:11:00,
2013-05-01 09:22:00,59.0,54.0,30.17,North,5,1.0,9.0,84,0.00,,,0.00,,2013-05-01 13:22:00,
2013-05-01 09:32:00,60.0,54.0,30.17,North,5,0.0,5.0,82,0.00,,,0.00,,2013-05-01 13:32:00,
2013-05-01 09:42:00,60.0,54.0,30.17,North,5,0.0,5.0,82,0.00,,,0.00,,2013-05-01 13:42:00,
2013-05-01 09:52:00,61.0,55.0,30.18,North,5,2.0,6.0,80,0.00,,,0.00,,2013-05-01 13:52:00,
2013-05-01 10:02:00,62.0,55.0,30.17,North,5,1.0,8.0,78,0.00,,,0.00,,2013-05-01 14:02:00,
2013-05-01 10:11:00,62.0,55.0,30.17,North,5,1.0,8.0,78,0.00,,,0.00,,2013-05-01 14:11:00,
2013-05-01 10:22:00,63.0,55.0,30.18,North,5,1.0,9.0,76,0.00,,,0.00,,2013-05-01 14:22:00,
2013-05-01 10:32:00,63.0,55.0,30.19,North,5,1.0,4.0,74,0.00,,,0.00,,2013-05-01 14:32:00,
2013-05-01 10:42:00,63.0,55.0,30.19,North,5,1.0,4.0,74,0.00,,,0.00,,2013-05-01 14:42:00,
2013-05-01 10:52:00,63.0,55.0,30.19,North,5,0.0,6.0,76,0.00,,,0.00,,2013-05-01 14:52:00,
2013-05-01 11:01:00,64.0,56.0,30.19,North,5,2.0,5.0,74,0.00,,,0.00,,2013-05-01 15:01:00,
2013-05-01 11:11:00,64.0,56.0,30.19,North,5,2.0,5.0,74,0.00,,,0.00,,2013-05-01 15:11:00,
2013-05-01 11:22:00,64.0,56.0,30.19,North,5,1.0,9.0,74,0.00,,,0.00,,2013-05-01 15:22:00,
2013-05-01 11:33:00,64.0,55.0,30.19,North,5,3.0,10.0,72,0.00,,,0.00,,2013-05-01 15:33:00,
2013-05-01 11:43:00,64.0,55.0,30.19,North,5,3.0,10.0,72,0.00,,,0.00,,2013-05-01 15:43:00,
2013-05-01 11:53:00,63.0,55.0,30.20,North,5,0.0,4.0,75,0.00,,,0.00,,2013-05-01 15:53:00,
2013-05-01 12:03:00,63.0,55.0,30.20,North,5,1.0,4.0,74,0.00,,,0.00,,2013-05-01 16:03:00,
2013-05-01 12:12:00,63.0,55.0,30.20,North,5,1.0,4.0,74,0.00,,,0.00,,2013-05-01 16:12:00,
2013-05-01 12:22:00,63.0,55.0,30.20,North,5,0.0,5.0,75,0.00,,,0.00,,2013-05-01 16:22:00,
2013-05-01 12:32:00,64.0,56.0,30.18,North,5,2.0,6.0,74,0.00,,,0.00,,2013-05-01 16:32:00,
2013-05-01 12:42:00,64.0,56.0,30.18,North,5,2.0,6.0,74,0.00,,,0.00,,2013-05-01 16:42:00,
2013-05-01 12:53:00,65.0,56.0,30.17,North,5,0.0,4.0,72,0.00,,,0.00,,2013-05-01 16:53:00,
2013-05-01 13:02:00,65.0,55.0,30.17,North,5,0.0,6.0,71,0.00,,,0.00,,2013-05-01 17:02:00,
2013-05-01 13:12:00,65.0,55.0,30.17,North,5,0.0,6.0,71,0.00,,,0.00,,2013-05-01 17:12:00,
2013-05-01 13:22:00,65.0,55.0,30.17,North,5,2.0,10.0,69,0.00,,,0.00,,2013-05-01 17:22:00,
2013-05-01 13:32:00,66.0,55.0,30.16,North,5,2.0,5.0,67,0.00,,,0.00,,2013-05-01 17:32:00,
2013-05-01 13:42:00,66.0,55.0,30.16,North,5,2.0,5.0,67,0.00,,,0.00,,2013-05-01 17:42:00,
2013-05-01 13:52:00,66.0,56.0,30.17,North,5,1.0,8.0,69,0.00,,,0.00,,2013-05-01 17:52:00,
2013-05-01 14:02:00,66.0,55.0,30.17,North,5,1.0,5.0,68,0.00,,,0.00,,2013-05-01 18:02:00,
2013-05-01 14:11:00,66.0,55.0,30.17,North,5,1.0,5.0,68,0.00,,,0.00,,2013-05-01 18:11:00,
2013-05-01 14:22:00,66.0,56.0,30.18,North,5,1.0,4.0,69,0.00,,,0.00,,2013-05-01 18:22:00,
2013-05-01 14:32:00,67.0,55.0,30.18,North,5,1.0,7.0,66,0.00,,,0.00,,2013-05-01 18:32:00,
2013-05-01 14:42:00,67.0,55.0,30.18,North,5,1.0,7.0,66,0.00,,,0.00,,2013-05-01 18:42:00,
2013-05-01 14:52:00,66.0,55.0,30.18,North,5,1.0,5.0,68,0.00,,,0.00,,2013-05-01 18:52:00,
2013-05-01 15:02:00,66.0,56.0,30.17,North,5,1.0,5.0,69,0.00,,,0.00,,2013-05-01 19:02:00,
2013-05-01 15:11:00,66.0,56.0,30.17,North,5,1.0,5.0,69,0.00,,,0.00,,2013-05-01 19:11:00,
2013-05-01 15:22:00,67.0,56.0,30.17,North,5,1.0,6.0,69,0.00,,,0.00,,2013-05-01 19:22:00,
2013-05-01 15:32:00,67.0,56.0,30.16,North,5,1.0,5.0,68,0.00,,,0.00,,2013-05-01 19:32:00,
2013-05-01 15:43:00,67.0,56.0,30.16,North,5,1.0,5.0,68,0.00,,,0.00,,2013-05-01 19:43:00,
2013-05-01 15:52:00,67.0,56.0,30.16,North,5,2.0,5.0,67,0.00,,,0.00,,2013-05-01 19:52:00,
2013-05-01 16:02:00,68.0,56.0,30.15,North,5,1.0,6.0,66,0.00,,,0.00,,2013-05-01 20:02:00,
2013-05-01 16:11:00,68.0,56.0,30.15,North,5,1.0,6.0,66,0.00,,,0.00,,2013-05-01 20:11:00,
2013-05-01 16:21:00,67.0,55.0,30.16,North,5,2.0,6.0,66,0.00,,,0.00,,2013-05-01 20:21:00,
2013-05-01 16:32:00,68.0,57.0,30.15,North,5,1.0,6.0,68,0.00,,,0.00,,2013-05-01 20:32:00,
2013-05-01 16:42:00,68.0,57.0,30.15,North,5,1.0,6.0,68,0.00,,,0.00,,2013-05-01 20:42:00,
2013-05-01 16:52:00,67.0,56.0,30.15,North,5,1.0,4.0,67,0.00,,,0.00,,2013-05-01 20:52:00,
2013-05-01 17:01:00,67.0,56.0,30.15,North,5,1.0,5.0,67,0.00,,,0.00,,2013-05-01 21:01:00,
2013-05-01 17:11:00,67.0,56.0,30.15,North,5,1.0,5.0,67,0.00,,,0.00,,2013-05-01 21:11:00,
2013-05-01 17:22:00,67.0,56.0,30.16,North,5,1.0,8.0,68,0.00,,,0.00,,2013-05-01 21:22:00,
2013-05-01 17:32:00,66.0,56.0,30.15,North,5,0.0,4.0,69,0.00,,,0.00,,2013-05-01 21:32:00,
2013-05-01 17:43:00,66.0,56.0,30.15,North,5,0.0,4.0,69,0.00,,,0.00,,2013-05-01 21:43:00,
2013-05-01 17:53:00,66.0,56.0,30.15,North,5,1.0,5.0,69,0.00,,,0.00,,2013-05-01 21:53:00,
2013-05-01 18:03:00,66.0,56.0,30.16,North,5,1.0,4.0,70,0.00,,,0.00,,2013-05-01 22:03:00,
2013-05-01 18:12:00,66.0,56.0,30.16,North,5,1.0,4.0,70,0.00,,,0.00,,2013-05-01 22:12:00,
2013-05-01 18:23:00,66.0,56.0,30.15,North,5,1.0,3.0,71,0.00,,,0.00,,2013-05-01 22:23:00,
2013-05-01 18:33:00,65.0,56.0,30.15,North,5,0.0,3.0,72,0.00,,,0.00,,2013-05-01 22:33:00,
2013-05-01 18:42:00,65.0,56.0,30.15,North,5,0.0,3.0,72,0.00,,,0.00,,2013-05-01 22:42:00,
2013-05-01 18:53:00,65.0,55.0,30.14,North,5,0.0,7.0,71,0.00,,,0.00,,2013-05-01 22:53:00,
2013-05-01 19:02:00,65.0,56.0,30.15,North,5,1.0,4.0,73,0.00,,,0.00,,2013-05-01 23:02:00,
2013-05-01 19:12:00,65.0,56.0,30.15,North,5,1.0,4.0,73,0.00,,,0.00,,2013-05-01 23:12:00,
2013-05-01 19:21:00,64.0,55.0,30.14,North,5,1.0,4.0,73,0.00,,,0.00,,2013-05-01 23:21:00,
2013-05-01 19:32:00,64.0,56.0,30.14,North,5,1.0,4.0,74,0.00,,,0.00,,2013-05-01 23:32:00,
2013-05-01 19:42:00,64.0,56.0,30.14,North,5,1.0,4.0,74,0.00,,,0.00,,2013-05-01 23:42:00,
2013-05-01 19:52:00,64.0,56.0,30.15,North,5,0.0,5.0,76,0.00,,,0.00,,2013-05-01 23:52:00,
2013-05-01 20:01:00,63.0,55.0,30.14,North,5,0.0,2.0,76,0.00,,,0.00,,2013-05-02 00:01:00,
2013-05-01 20:11:00,63.0,55.0,30.14,North,5,0.0,2.0,76,0.00,,,0.00,,2013-05-02 00:11:00,
2013-05-01 20:22:00,63.0,56.0,30.14,North,5,1.0,4.0,78,0.00,,,0.00,,2013-05-02 00:22:00,
2013-05-01 20:32:00,62.0,55.0,30.15,North,5,1.0,6.0,79,0.00,,,0.00,,2013-05-02 00:32:00,
2013-05-01 20:42:00,62.0,55.0,30.15,North,5,1.0,6.0,79,0.00,,,0.00,,2013-05-02 00:42:00,
2013-05-01 20:52:00,62.0,56.0,30.16,North,5,0.0,4.0,80,0.00,,,0.00,,2013-05-02 00:52:00,
2013-05-01 21:01:00,62.0,56.0,30.16,North,5,0.0,5.0,80,0.00,,,0.00,,2013-05-02 01:01:00,
2013-05-01 21:11:00,62.0,56.0,30.16,North,5,0.0,5.0,80,0.00,,,0.00,,2013-05-02 01:11:00,
2013-05-01 21:22:00,61.0,55.0,30.16,North,5,0.0,6.0,81,0.00,,,0.00,,2013-05-02 01:22:00,
2013-05-01 21:32:00,61.0,55.0,30.17,North,5,0.0,4.0,82,0.00,,,0.00,,2013-05-02 01:32:00,
2013-05-01 21:42:00,61.0,55.0,30.17,North,5,0.0,4.0,82,0.00,,,0.00,,2013-05-02 01:42:00,
2013-05-01 21:52:00,61.0,56.0,30.18,North,5,0.0,3.0,83,0.00,,,0.00,,2013-05-02 01:52:00,
2013-05-01 22:02:00,61.0,56.0,30.18,North,5,1.0,4.0,84,0.00,,,0.00,,2013-05-02 02:02:00,
2013-05-01 22:12:00,61.0,56.0,30.18,North,5,1.0,4.0,84,0.00,,,0.00,,2013-05-02 02:12:00,
2013-05-01 22:21:00,61.0,56.0,30.19,North,5,0.0,5.0,84,0.00,,,0.00,,2013-05-02 02:21:00,
2013-05-01 22:32:00,60.0,55.0,30.20,North,5,0.0,3.0,85,0.00,,,0.00,,2013-05-02 02:32:00,
2013-05-01 22:42:00,60.0,55.0,30.20,North,5,0.0,3.0,85,0.00,,,0.00,,2013-05-02 02:42:00,
2013-05-01 22:51:00,60.0,55.0,30.20,North,5,0.0,3.0,85,0.00,,,0.00,,2013-05-02 02:51:00,
2013-05-01 23:01:00,60.0,56.0,30.20,North,5,0.0,4.0,86,0.00,,,0.00,,2013-05-02 03:01:00,
2013-05-01 23:11:00,60.0,56.0,30.20,North,5,0.0,4.0,86,0.00,,,0.00,,2013-05-02 03:11:00,
2013-05-01 23:22:00,60.0,56.0,30.20,North,5,2.0,5.0,86,0.00,,,0.00,,2013-05-02 03:22:00,
2013-05-01 23:33:00,60.0,56.0,30.20,North,5,0.0,5.0,86,0.00,,,0.00,,2013-05-02 03:33:00,
2013-05-01 23:43:00,60.0,56.0,30.20,North,5,0.0,5.0,86,0.00,,,0.00,,2013-05-02 03:43:00,
2013-05-01 23:53:00,60.0,56.0,30.20,North,5,2.0,7.0,87,0.00,,,0.00,,2013-05-02 03:53:00,